Weather observations for the past three days for
Fort Drum / Wheeler-Sack U. S. Army Airfield
Imperial (Metric)
Date Time (edt) Wind (mph) Vis. (mi.) Weather Sky Cond. Temperature (ºF) Relative Humidity Wind Chill (°F) Heat Index (°F) Pressure Precipitation (in)
Air Dwpt 6 hour altimeter (in) sea level (mb) 1 hr 3 hr 6 hr
Max. Min.
15 02:55 Calm 10.00 Fair CLR 56.5 52 85% 29.97 1014.8
15 01:55 Calm 10.00 Overcast OVC090 57.2 53.4 65.8 56.7 87% 29.96 1014.4
15 00:55 E 3 10.00 Overcast BKN065 OVC085 59.4 51.8 76% 29.96 1014.4
14 23:55 NE 6 10.00 Mostly Cloudy FEW060 BKN075 57.7 51.6 80% 29.95 1014.1
14 22:55 NE 5 10.00 Fair CLR 58.1 52.7 82% 29.93 1013.4
14 21:55 N 7 10.00 Fair CLR 61.3 53.4 75% 29.92 1013.1
14 20:55 Calm 10.00 Partly Cloudy SCT080 62.2 59.9 92% 29.9 1012.4
14 19:55 NW 3 10.00 Overcast BKN045 OVC060 65.7 59.7 73.4 64.6 81% 29.89 1012.0 0.08 0.18
14 18:55 Calm 10.00 Overcast BKN043 BKN050 OVC080 65.7 62.1 88% 29.87 1011.3 0.1
14 17:55 NW 5 10.00 Light Rain SCT035 BKN046 BKN055 BKN070 68.7 58.5 70% 29.85 1010.6
14 16:55 W 6 10.00 Mostly Cloudy BKN085 71.6 57.9 62% 29.84 1010.2
14 15:55 W 6 10.00 Overcast FEW033 BKN044 OVC075 70.5 57.7 64% 29.85 1010.6
14 14:55 W 5 10.00 Light Drizzle BKN030 OVC041 69.8 58.3 67% 29.84 1010.2
14 13:55 W 6 10.00 Overcast BKN028 BKN036 BKN043 BKN055 OVC070 71.1 58.6 72.5 66.2 65% 29.84 1010.2
14 12:55 W 9 10.00 Mostly Cloudy SCT026 BKN036 BKN045 BKN055 72.5 58.6 62% 29.84 1010.2
14 11:55 W 7 10.00 Mostly Cloudy BKN025 BKN031 BKN060 70.2 59.5 69% 29.84 1010.2
14 10:55 W 8 10.00 Partly Cloudy SCT025 SCT034 69.8 58.8 68% 29.84 1010.1
14 09:55 W 8 10.00 Mostly Cloudy BKN020 69.1 59.7 72% 29.83 1009.8
14 08:55 W 7 10.00 Mostly Cloudy BKN012 BKN019 67.6 61.9 82% 29.82 1009.4
14 07:55 W 6 10.00 Partly Cloudy FEW018 SCT140 67.6 62.2 67.6 64.4 83% 29.8 1008.8 0.03
14 06:55 SW 7 10.00 Mostly Cloudy FEW080 SCT100 BKN130 65.7 63 91% 29.77 1007.7
14 05:55 SW 6 10.00 Light Rain BKN090 BKN130 66 62.4 88% 29.75 1007.0
14 04:55 S 6 10.00 Mostly Cloudy FEW025 FEW030 BKN041 BKN090 BKN110 64.8 62.6 93% 29.74 1006.7 0.03
14 03:55 S 6 10.00 Overcast SCT047 BKN070 OVC100 66.2 62.2 87% 29.74 1006.7
14 02:55 S 7 10.00 Light Rain FEW048 FEW060 BKN120 64.8 61.3 89% 29.73 1006.4 0.03
14 01:55 SW 15 5.00 Light Rain Fog/Mist OVC075 64.9 61 79.5 64.2 87% 29.75 1007.1 0.18 0.61
14 00:55 Calm 8.00 Light Rain FEW014 BKN044 OVC055 65.1 62.1 90% 29.79 1008.4 0.12
13 23:55 NW 9 G 24 4.00 Heavy Rain Fog/Mist OVC042 64.4 62.1 92% 29.81 1009.1 0.31
13 22:55 S 15 10.00 A Few Clouds FEW075 FEW140 76.1 57.7 53% 78 29.72 1005.9
13 21:55 S 15 10.00 Mostly Cloudy FEW080 SCT100 BKN130 78.1 57.9 50% 79 29.74 1006.7
13 20:55 S 13 10.00 Partly Cloudy SCT130 77.7 58.1 51% 79 29.73 1006.4
13 19:55 S 10 10.00 Partly Cloudy SCT130 79.7 57.6 84.7 79.7 47% 80 29.75 1007.1
13 18:55 SW 12 10.00 Partly Cloudy SCT130 82.6 58.5 44% 82 29.75 1007.1
13 17:55 SW 12 10.00 A Few Clouds FEW140 83.1 58.3 43% 83 29.77 1007.9
13 16:55 SW 16 10.00 A Few Clouds FEW090 83.8 59.5 44% 84 29.78 1008.2
13 15:55 SW 13 10.00 Partly Cloudy FEW060 SCT100 82.6 58.5 44% 82 29.81 1009.2
13 14:55 SW 14 G 20 10.00 A Few Clouds FEW150 FEW210 82.9 56.8 41% 82 29.81 1009.2
13 13:55 SW 18 G 24 10.00 A Few Clouds FEW160 FEW190 82 56.7 82.2 62.4 42% 82 29.83 1009.9
13 12:55 SW 17 G 29 10.00 A Few Clouds FEW160 FEW200 FEW230 81.9 55.2 40% 81 29.84 1010.2
13 11:55 SW 20 G 25 10.00 Fair CLR 79.7 54.5 42% 80 29.85 1010.6
13 10:55 SW 16 10.00 Fair CLR 79 54.5 43% 79 29.85 1010.6
13 09:55 SE 9 10.00 A Few Clouds FEW120 70.2 56.5 62% 29.87 1011.4
13 08:55 SE 8 10.00 Overcast OVC100 65.8 55 68% 29.89 1012.1
13 07:55 SE 9 10.00 Fair CLR 62.2 53.1 62.2 53.1 72% 29.9 1012.4
13 06:55 SE 12 10.00 Fair CLR 57 50.5 79% 29.9 1012.4
13 05:55 SE 14 10.00 Fair CLR 53.8 50 87% 29.9 1012.5
13 04:55 SE 10 10.00 Fair CLR 53.6 50.2 88% 29.91 1012.8
13 03:55 SE 12 10.00 Fair CLR 53.1 49.8 89% 29.91 1012.9
13 02:55 SE 13 10.00 Fair CLR 53.8 50 87% 29.91 1012.9
13 01:55 SE 13 10.00 Fair CLR 54.9 49.8 64.8 53.6 83% 29.92 1013.2
13 00:55 SE 8 10.00 Fair CLR 55.6 48.7 78% 29.94 1013.9
12 23:55 SE 7 10.00 Fair CLR 55.8 48.4 76% 29.94 1013.9
12 22:55 S 7 10.00 Fair CLR 53.8 49.5 85% 29.95 1014.3
12 21:55 S 3 10.00 Fair CLR 54.5 50.4 86% 29.96 1014.6
12 20:55 Calm 10.00 Fair CLR 59 51.4 76% 29.95 1014.2
12 19:55 Calm 10.00 Fair CLR 64.9 50.2 68.5 61.7 59% 29.95 1014.2
12 18:55 W 5 10.00 Fair CLR 66.7 48.6 52% 29.97 1014.9
12 17:55 W 6 10.00 Fair CLR 67.6 48.9 51% 29.96 1014.5
12 16:55 W 6 10.00 A Few Clouds FEW049 68 50.7 54% 29.97 1014.8
12 15:55 W 5 10.00 Overcast OVC049 65.8 50.2 57% 29.99 1015.5
12 14:55 N 3 10.00 Overcast SCT028 BKN035 OVC044 64.4 52 64% 29.99 1015.5
12 13:55 N 3 10.00 Overcast BKN030 OVC036 61.5 53.4 64 57.7 75% 30.01 1016.3
12 12:55 W 3 10.00 Overcast FEW028 OVC043 63.1 50.7 64% 30.02 1016.6
12 11:55 W 7 10.00 Overcast SCT029 OVC036 62.1 50.5 66% 30.02 1016.6
12 09:55 W 3 10.00 Overcast OVC040 60.3 51.3 72% 30.03 1016.9
12 08:55 W 5 10.00 Overcast OVC037 59 50 72% 30.03 1017.0
12 07:55 SW 3 10.00 Overcast OVC037 57.9 49.6 57.9 55.4 74% 30.02 1016.6
12 06:55 S 5 10.00 Overcast OVC036 56.7 51.3 82% 30.01 1016.3
12 05:55 S 6 10.00 Overcast OVC036 55.8 51.6 86% 30.01 1016.3
12 04:55 S 6 10.00 Overcast OVC036 55.8 51.3 85% 30.01 0.0
12 03:55 SE 6 10.00 Overcast OVC036 56.1 50 80% 30 0.0
Date Time (edt) Wind (mph) Vis. (mi.) Weather Sky Cond. Air Dwpt Max. Min. Relative Humidity Wind Chill (°F) Heat Index (°F) altimeter (in) sea level (mb) 1 hr 3 hr 6 hr
6 hour
Temperature (ºF) Pressure Precipitation (in)